星链-6262 (STARLINK-6262 )

导读

STARLINK-6262是美国SpaceX公司星链(Starlink)星座的组网卫星,于2023年6月22日发射升空,隶属于星链互联网卫星项目。该项目旨在通过低轨卫星星座为全球提供高速互联网接入服务,覆盖偏远地区、海洋空域等传统网络盲区,这颗卫星承担着补充星链星座网络容量、提升服务覆盖稳定性的作用。

基本信息
目录编号:
57091
目录名称:
STARLINK-6262
国际标识:
2023-088AV
轨道中心:
EARTH
卫星名称:
星链-6262
卫星全名:
星链-6262 (STARLINK-6262 )
卫星状态:
在轨 (已飞行1170 天)
发射日期:
2023-06-22 UTC
国别 :
美国 (US)
星等 :
--
轨道信息
数据来源 国际轨道数据 AOE轨道数据
星历时间 2026-09-04T06:31:21+0800
10小时前
查看轨道信息
2026-09-03T23:00:00+0800
17小时前
查看轨道信息
半长轴 6861.2km 6861.181km
偏心率 0.0001066 0.0001326
轨道倾角 43.001° 43.001°
近地点辐角 266.680° 252.909°
升交点赤经 169.255° 171.026°
平近点角 93.393° 181.447°
近地点 482.331km 482.134km
远地点 483.795km 483.954km
周期 94.267分钟 94.267分钟
每日圈数 15.275755 15.27582
详细信息
固有亮度:
5
最大亮度:
2.4
卫星平台:
Starlink v1.5
覆盖范围:
全球
运营商:
太空探索技术公司
运营商所在国:
美国
制造商(研发单位):
太空探索技术公司
制造商所在国:
美国
使用方式:
暂无
卫星简介
星链(Starlink)计划是由太空探索技术公司(SpaceX)提出的一个巨型低轨卫星互联网星座项目,计划在2019年至2024年间在太空搭建由约1.2万颗卫星组成的“星链”网络,其中1584颗将部署在地球上空550千米处的近地轨道,并从2020年开始工作。该卫星仍在工作。
2D轨道图
3D轨道图
轨道高度分析图
轨道倾角分析图
轨道综合分析图
查看轨道综合分析图
交会数据列表
事件ID 空间交会对象 最接近时刻(TCA) 交会距离 交会风险概率(CRP) 交会风险指数(CRI) 操作
CDM_260905-061405-709106-659421
2026-09-05T
06:14:08+0000
0.436 km
远距离
1.238889E-4 高风险 0.77
CDM_260827-211005-709106-359022
2026-08-27T
21:10:23+0000
0.906 km
远距离
2.797283E-5 中风险 0.64
CDM_260905-100905-709106-659421
2026-09-05T
10:09:31+0000
1.134 km
极远距离
6.493302E-6 低风险 0.51
CDM_260827-224405-709106-359022
2026-08-27T
22:44:33+0000
1.577 km
极远距离
4.260358E-6 低风险 0.48
CDM_260905-121705-709106-750721
2026-09-05T
12:17:42+0000
2.395 km
极远距离
1.490952E-6 低风险 0.38
CDM_260827-193605-709106-359021
2026-08-27T
19:36:14+0000
2.722 km
极远距离
1.186353E-6 低风险 0.36
CDM_260905-114305-709106-659421
2026-09-05T
11:43:40+0000
2.797 km
极远距离
6.612651E-7 极低风险 0.31